| time (UTC) | temp C | wind direction | speed KPH | gust KPH | rain 1hr cm | rain 24hr cm | rain mn cm | humidity % | barometer mb |
| 20260506201002 | 18 | 90 | 1.6 | 4.8 | 0.00 | 0.00 | 0.00 | 63 | 1004.0 |
| 20260506200002 | 18 | 90 | 1.6 | 4.8 | 0.00 | 0.00 | 0.00 | 62 | 1004.0 |
| 20260506195002 | 19 | 90 | 1.6 | 4.8 | 0.00 | 0.00 | 0.00 | 62 | 1004.0 |
| 20260506194002 | 19 | 100 | 3.2 | 4.8 | 0.00 | 0.00 | 0.00 | 61 | 1004.0 |
| 20260506193002 | 20 | 106 | 3.2 | 6.4 | 0.00 | 0.00 | 0.00 | 61 | 1004.0 |
| 20260506192001 | 20 | 90 | 3.2 | 6.4 | 0.00 | 0.00 | 0.00 | 60 | 1004.0 |
| 20260506191002 | 20 | 90 | 3.2 | 6.4 | 0.00 | 0.00 | 0.00 | 59 | 1004.0 |
| 20260506190002 | 20 | 90 | 3.2 | 4.8 | 0.00 | 0.00 | 0.00 | 58 | 1004.0 |
| 20260506185003 | 20 | 42 | 3.2 | 6.4 | 0.00 | 0.00 | 0.00 | 58 | 1004.0 |
| 20260506184002 | 21 | 90 | 1.6 | 6.4 | 0.00 | 0.00 | 0.00 | 57 | 1003.0 |
| 20260506183002 | 21 | 104 | 3.2 | 6.4 | 0.00 | 0.00 | 0.00 | 56 | 1003.0 |
| 20260506182002 | 21 | 90 | 3.2 | 6.4 | 0.00 | 0.00 | 0.00 | 55 | 1003.0 |
| 20260506181002 | 22 | 90 | 3.2 | 8.0 | 0.00 | 0.00 | 0.00 | 54 | 1003.0 |
| 20260506180002 | 22 | 90 | 3.2 | 6.4 | 0.00 | 0.00 | 0.00 | 53 | 1003.0 |
| 20260506175002 | 22 | 105 | 3.2 | 4.8 | 0.00 | 0.00 | 0.00 | 53 | 1003.0 |
| 20260506174002 | 22 | 65 | 3.2 | 6.4 | 0.00 | 0.00 | 0.00 | 52 | 1003.0 |
| 20260506173003 | 23 | 16 | 3.2 | 8.0 | 0.00 | 0.00 | 0.00 | 51 | 1003.0 |
| 20260506172002 | 23 | 349 | 3.2 | 8.0 | 0.00 | 0.00 | 0.00 | 50 | 1003.0 |
| 20260506171002 | 23 | 90 | 3.2 | 8.0 | 0.00 | 0.00 | 0.00 | 49 | 1002.0 |
| 20260506170002 | 24 | 41 | 4.8 | 9.7 | 0.00 | 0.00 | 0.00 | 48 | 1002.0 |
| 20260506165002 | 24 | 19 | 4.8 | 9.7 | 0.00 | 0.00 | 0.00 | 47 | 1002.0 |
| 20260506164003 | 24 | 19 | 4.8 | 11.3 | 0.00 | 0.00 | 0.00 | 47 | 1002.0 |
| 20260506163003 | 25 | 11 | 4.8 | 12.9 | 0.00 | 0.00 | 0.00 | 45 | 1002.0 |
| 20260506161002 | 25 | 349 | 4.8 | 17.7 | 0.00 | 0.00 | 0.00 | 44 | 1002.0 |
| 20260506160002 | 26 | 333 | 4.8 | 12.9 | 0.00 | 0.00 | 0.00 | 44 | 1002.0 |
| 20260506155002 | 26 | 315 | 4.8 | 14.5 | 0.00 | 0.00 | 0.00 | 44 | 1002.0 |
| 20260506154003 | 25 | 287 | 3.2 | 9.7 | 0.00 | 0.00 | 0.00 | 44 | 1002.0 |
| 20260506153002 | 26 | 320 | 4.8 | 12.9 | 0.00 | 0.00 | 0.00 | 43 | 1002.0 |
| 20260506152002 | 26 | 319 | 6.4 | 19.3 | 0.00 | 0.00 | 0.00 | 42 | 1002.0 |
| 20260506151003 | 26 | 308 | 4.8 | 16.1 | 0.00 | 0.00 | 0.00 | 41 | 1002.0 |
| 20260506150003 | 26 | 291 | 4.8 | 14.5 | 0.00 | 0.00 | 0.00 | 40 | 1002.0 |
| 20260506145002 | 27 | 291 | 4.8 | 16.1 | 0.00 | 0.00 | 0.00 | 39 | 1002.0 |
| 20260506144002 | 27 | 303 | 4.8 | 20.9 | 0.00 | 0.00 | 0.00 | 38 | 1002.0 |
| 20260506143002 | 27 | 275 | 4.8 | 11.3 | 0.00 | 0.00 | 0.00 | 38 | 1002.0 |
| 20260506142003 | 27 | 284 | 6.4 | 12.9 | 0.00 | 0.00 | 0.00 | 38 | 1001.0 |
| 20260506141002 | 27 | 285 | 8.0 | 17.7 | 0.00 | 0.00 | 0.00 | 38 | 1002.0 |
| 20260506140002 | 27 | 280 | 3.2 | 12.9 | 0.00 | 0.00 | 0.00 | 38 | 1001.0 |
| 20260506135002 | 27 | 282 | 4.8 | 12.9 | 0.00 | 0.00 | 0.00 | 37 | 1001.0 |
| 20260506134002 | 27 | 258 | 4.8 | 8.0 | 0.00 | 0.00 | 0.00 | 37 | 1001.0 |
| 20260506133002 | 27 | 261 | 6.4 | 12.9 | 0.00 | 0.00 | 0.00 | 37 | 1001.0 |
| 20260506132002 | 27 | 283 | 6.4 | 14.5 | 0.00 | 0.00 | 0.00 | 38 | 1002.0 |
| 20260506131002 | 27 | 270 | 6.4 | 17.7 | 0.00 | 0.00 | 0.00 | 37 | 1002.0 |
| 20260506130003 | 27 | 281 | 4.8 | 12.9 | 0.00 | 0.00 | 0.00 | 37 | 1002.0 |
| 20260506125002 | 27 | 255 | 6.4 | 20.9 | 0.00 | 0.00 | 0.00 | 37 | 1002.0 |
| 20260506124002 | 27 | 233 | 6.4 | 16.1 | 0.00 | 0.00 | 0.00 | 37 | 1002.0 |
| 20260506123003 | 27 | 205 | 4.8 | 12.9 | 0.00 | 0.00 | 0.00 | 40 | 1002.0 |
| 20260506122003 | 27 | 154 | 3.2 | 6.4 | 0.00 | 0.00 | 0.00 | 41 | 1002.0 |
| 20260506121002 | 27 | 128 | 4.8 | 8.0 | 0.00 | 0.00 | 0.00 | 42 | 1002.0 |
| 20260506120002 | 27 | 126 | 4.8 | 8.0 | 0.00 | 0.00 | 0.00 | 43 | 1002.0 |
| 20260506115002 | 27 | 260 | 3.2 | 8.0 | 0.00 | 0.00 | 0.00 | 45 | 1002.0 |
| 20260506114004 | 26 | 128 | 4.8 | 8.0 | 0.00 | 0.00 | 0.00 | 45 | 1002.0 |
| 20260506113002 | 26 | 270 | 3.2 | 8.0 | 0.00 | 0.00 | 0.00 | 46 | 1002.0 |
| 20260506112002 | 26 | 260 | 3.2 | 8.0 | 0.00 | 0.00 | 0.00 | 46 | 1002.0 |
| 20260506111002 | 26 | 145 | 3.2 | 8.0 | 0.00 | 0.00 | 0.00 | 48 | 1003.0 |
| 20260506110002 | 26 | 138 | 3.2 | 8.0 | 0.00 | 0.00 | 0.00 | 50 | 1003.0 |
| 20260506105002 | 25 | 132 | 3.2 | 6.4 | 0.00 | 0.00 | 0.00 | 52 | 1003.0 |
| 20260506104002 | 25 | 135 | 4.8 | 14.5 | 0.00 | 0.00 | 0.00 | 54 | 1003.0 |
| 20260506103002 | 24 | 127 | 3.2 | 8.0 | 0.00 | 0.00 | 0.00 | 57 | 1003.0 |
| 20260506102002 | 23 | 128 | 4.8 | 14.5 | 0.00 | 0.00 | 0.00 | 58 | 1003.0 |
| 20260506101002 | 23 | 128 | 4.8 | 12.9 | 0.00 | 0.00 | 0.00 | 59 | 1003.0 |
| 20260506100002 | 22 | 128 | 3.2 | 6.4 | 0.00 | 0.00 | 0.00 | 61 | 1003.0 |
| 20260506095002 | 22 | 144 | 3.2 | 12.9 | 0.00 | 0.00 | 0.00 | 63 | 1004.0 |
| 20260506094001 | 21 | 119 | 4.8 | 14.5 | 0.00 | 0.00 | 0.00 | 63 | 1004.0 |
| 20260506093003 | 21 | 122 | 6.4 | 9.7 | 0.00 | 0.00 | 0.00 | 64 | 1004.0 |
| 20260506092003 | 21 | 120 | 3.2 | 9.7 | 0.00 | 0.00 | 0.00 | 65 | 1004.0 |
| 20260506091002 | 21 | 131 | 4.8 | 11.3 | 0.00 | 0.00 | 0.00 | 65 | 1004.0 |
| 20260506090003 | 21 | 127 | 6.4 | 12.9 | 0.00 | 0.00 | 0.00 | 65 | 1004.0 |
| 20260506085002 | 21 | 120 | 3.2 | 8.0 | 0.00 | 0.00 | 0.00 | 65 | 1004.0 |
| 20260506084002 | 20 | 119 | 4.8 | 9.7 | 0.00 | 0.00 | 0.00 | 66 | 1004.0 |
| 20260506083003 | 20 | 132 | 4.8 | 9.7 | 0.00 | 0.00 | 0.00 | 66 | 1004.0 |
| 20260506082005 | 20 | 125 | 4.8 | 8.0 | 0.00 | 0.00 | 0.00 | 65 | 1004.0 |
| 20260506081002 | 19 | 125 | 4.8 | 9.7 | 0.00 | 0.00 | 0.00 | 65 | 1004.0 |
| 20260506073003 | 16 | 134 | 4.8 | 11.3 | 0.00 | 0.00 | 0.00 | 63 | 1004.0 |
| 20260506072003 | 16 | 130 | 6.4 | 12.9 | 0.00 | 0.00 | 0.00 | 63 | 1004.0 |
| 20260506071005 | 15 | 132 | 4.8 | 9.7 | 0.00 | 0.00 | 0.00 | 66 | 1004.0 |
| 20260506062008 | 13 | 139 | 8.0 | 14.5 | 0.00 | 0.00 | 0.00 | 79 | 1005.0 |
| 20260506061005 | 13 | 126 | 4.8 | 12.9 | 0.00 | 0.00 | 0.00 | 78 | 1005.0 |
| 20260506051005 | 12 | 126 | 6.4 | 11.3 | 0.00 | 0.00 | 0.00 | 75 | 1005.0 |
| 20260506045003 | 11 | 122 | 6.4 | 14.5 | 0.00 | 0.00 | 0.00 | 72 | 1005.0 |
| 20260506044005 | 11 | 119 | 8.0 | 16.1 | 0.00 | 0.00 | 0.00 | 76 | 1005.0 |
| 20260506043007 | 11 | 120 | 6.4 | 12.9 | 0.00 | 0.00 | 0.00 | 82 | 1005.0 |
| 20260506042004 | 11 | 122 | 6.4 | 12.9 | 0.00 | 0.00 | 0.00 | 90 | 1005.0 |
| 20260506041003 | 11 | 120 | 6.4 | 12.9 | 0.00 | 0.00 | 0.00 | 91 | 1005.0 |
| 20260506040004 | 10 | 115 | 8.0 | 11.3 | 0.00 | 0.00 | 0.00 | 90 | 1005.0 |
| 20260506035005 | 10 | 114 | 6.4 | 11.3 | 0.00 | 0.00 | 0.00 | 91 | 1005.0 |
| 20260506034005 | 10 | 118 | 4.8 | 9.7 | 0.00 | 0.00 | 0.00 | 91 | 1005.0 |
| 20260506033005 | 10 | 118 | 4.8 | 9.7 | 0.00 | 0.00 | 0.00 | 91 | 1005.0 |
| 20260506032006 | 10 | 122 | 4.8 | 8.0 | 0.00 | 0.00 | 0.00 | 90 | 1005.0 |
| 20260506031005 | 10 | 118 | 4.8 | 12.9 | 0.00 | 0.00 | 0.00 | 90 | 1005.0 |
| 20260506030006 | 10 | 114 | 4.8 | 6.4 | 0.00 | 0.00 | 0.00 | 90 | 1005.0 |
| 20260506025002 | 10 | 115 | 3.2 | 8.0 | 0.00 | 0.00 | 0.00 | 90 | 1005.0 |
| 20260506024002 | 10 | 118 | 6.4 | 9.7 | 0.00 | 0.00 | 0.00 | 90 | 1005.0 |
| 20260506023003 | 11 | 113 | 4.8 | 9.7 | 0.00 | 0.00 | 0.00 | 90 | 1005.0 |
| 20260506022003 | 11 | 116 | 4.8 | 8.0 | 0.00 | 0.00 | 0.00 | 90 | 1005.0 |
| 20260506021002 | 11 | 114 | 4.8 | 8.0 | 0.00 | 0.00 | 0.00 | 90 | 1005.0 |
| 20260506020002 | 11 | 112 | 4.8 | 9.7 | 0.00 | 0.00 | 0.00 | 91 | 1005.0 |
| 20260506015003 | 11 | 120 | 6.4 | 9.7 | 0.00 | 0.00 | 0.00 | 92 | 1005.0 |
| 20260506014002 | 11 | 114 | 4.8 | 8.0 | 0.00 | 0.00 | 0.00 | 92 | 1005.0 |
| 20260506013002 | 11 | 118 | 6.4 | 14.5 | 0.00 | 0.00 | 0.00 | 93 | 1005.0 |
| 20260506012002 | 11 | 114 | 6.4 | 9.7 | 0.00 | 0.00 | 0.00 | 93 | 1005.0 |
| 20260506011002 | 11 | 114 | 6.4 | 9.7 | 0.00 | 0.00 | 0.00 | 93 | 1005.0 |
| 20260506010002 | 12 | 116 | 6.4 | 11.3 | 0.00 | 0.00 | 0.00 | 93 | 1005.0 |
| 20260506005002 | 12 | 117 | 6.4 | 12.9 | 0.00 | 0.00 | 0.00 | 93 | 1005.0 |
| 20260506004003 | 12 | 114 | 6.4 | 14.5 | 0.00 | 0.00 | 0.00 | 93 | 1005.0 |
| 20260506003002 | 12 | 111 | 4.8 | 9.7 | 0.00 | 0.00 | 0.00 | 93 | 1005.0 |
| 20260506002002 | 12 | 116 | 6.4 | 16.1 | 0.00 | 0.00 | 0.00 | 93 | 1005.0 |
| 20260506001002 | 12 | 112 | 4.8 | 12.9 | 0.00 | 0.00 | 0.00 | 94 | 1005.0 |
| 20260506000003 | 13 | 116 | 6.4 | 11.3 | 0.00 | 0.00 | 0.00 | 95 | 1005.0 |
| 20260505235002 | 13 | 121 | 4.8 | 9.7 | 0.00 | 0.00 | 0.00 | 95 | 1005.0 |
| 20260505234001 | 13 | 117 | 4.8 | 9.7 | 0.00 | 0.00 | 0.00 | 95 | 1005.0 |
| 20260505233002 | 13 | 113 | 4.8 | 11.3 | 0.00 | 0.00 | 0.00 | 95 | 1005.0 |
| 20260505232003 | 13 | 113 | 6.4 | 14.5 | 0.00 | 0.00 | 0.00 | 95 | 1005.0 |
| 20260505231002 | 13 | 122 | 6.4 | 12.9 | 0.00 | 0.00 | 0.00 | 95 | 1005.0 |
| 20260505230003 | 13 | 116 | 8.0 | 14.5 | 0.00 | 0.00 | 0.00 | 95 | 1005.0 |
| 20260505225002 | 13 | 119 | 6.4 | 14.5 | 0.00 | 0.00 | 0.00 | 95 | 1005.0 |
| 20260505224002 | 13 | 114 | 4.8 | 8.0 | 0.00 | 0.00 | 0.00 | 94 | 1005.0 |
| 20260505223002 | 13 | 124 | 6.4 | 8.0 | 0.00 | 0.00 | 0.00 | 94 | 1005.0 |
| 20260505222002 | 13 | 116 | 4.8 | 8.0 | 0.00 | 0.00 | 0.00 | 94 | 1005.0 |
| 20260505221002 | 13 | 119 | 6.4 | 12.9 | 0.00 | 0.00 | 0.00 | 94 | 1005.0 |
| 20260505220002 | 14 | 120 | 6.4 | 12.9 | 0.00 | 0.00 | 0.00 | 94 | 1005.0 |
| 20260505215002 | 14 | 112 | 4.8 | 9.7 | 0.00 | 0.00 | 0.00 | 94 | 1005.0 |
| 20260505214002 | 14 | 114 | 4.8 | 8.0 | 0.00 | 0.00 | 0.00 | 94 | 1005.0 |
| 20260505213002 | 14 | 119 | 6.4 | 9.7 | 0.00 | 0.00 | 0.00 | 94 | 1005.0 |
| 20260505212002 | 14 | 110 | 6.4 | 12.9 | 0.00 | 0.00 | 0.00 | 93 | 1005.0 |
| 20260505211002 | 14 | 107 | 4.8 | 9.7 | 0.00 | 0.00 | 0.00 | 93 | 1005.0 |
| 20260505210002 | 14 | 117 | 4.8 | 9.7 | 0.00 | 0.00 | 0.00 | 92 | 1005.0 |
| 20260505205002 | 14 | 118 | 4.8 | 11.3 | 0.00 | 0.00 | 0.00 | 91 | 1005.0 |
| 20260505204002 | 15 | 108 | 4.8 | 9.7 | 0.00 | 0.00 | 0.00 | 90 | 1005.0 |
| 20260505203003 | 15 | 116 | 4.8 | 9.7 | 0.00 | 0.00 | 0.00 | 90 | 1005.0 |
| 20260505202003 | 15 | 113 | 3.2 | 6.4 | 0.00 | 0.00 | 0.00 | 90 | 1005.0 |